Погода в Инюшке

Россия / Кемеровская область (Кузбасс)     54°36′11″N   86°48′03″E
темп.,
°C
ветер,
м/с
пор.,
м/с
влажн.,
%
обл.,
%
осадки,
мм/ч
давл.,
гПа
погр.,
м
5 декабря, вс
вс501:00−8юз399394 0.3 1032230
04:00−13ю349688 0.0 103448
07:00−11ю379795 0.0 103394
10:00−10ююв389693 0.0 1031145
13:00−7ююв499569 0.0 1029236
16:00−7ююв389692 0.0 1027148
19:00−4ю4993100 0.1 1026304
22:00−4ю51092100 0.0 1025320
6 декабря, пн
пн601:00−4ю51093100 0.1 1024306
04:00−4ю5994100 0.0 1023279
07:00−3ю4993100 0.0 1023300
10:00−4ю4894100 0.1 1023232
13:00−2ю3797100 1.1 1022257
16:00−2ююв379665 1.4 1021259
19:00−6юв379552 1.4 1021107
22:00−3ююв4109096 0.1 1019245
7 декабря, вт
вт701:00−2ю51083100 0.1 1018323
04:00−2ю5997100 2.7 1017453
07:000ююз61394100 4.4 1015754
10:000юз61398100 0.8 1016861
13:000юз71292100 1.8 1016998
16:00−1зюз61196100 0.6 1017991
19:00−4з71288100 0.9 1021774
22:00−8з61290100 0.1 1026479
8 декабря, ср
ср801:00−11з4994100 0.2 1030335
04:00−15зюз3697100 0.1 1034133
07:00−21ю2210097 0.1 10379
10:00−23ююв2210069 0.0 103911
13:00−17ююз12967 0.0 103877
16:00−20ююв111005 0.0 10389
19:00−24ю1110078 0.0 10399
22:00−26юз1110082 0.0 10419
9 декабря, чт
чт901:00−27ю1110098 0.0 10439
04:00−26ююв22100100 0.0 104411
07:00−26ююв2298100 0.0 104620
10:00−26ююв249884 0.0 104748
13:00−20ююв36925 0.0 1046170
16:00−19ююв38955 0.0 1045155
19:00−20ююв41097100 0.0 1044165
22:00−17ююв51093100 0.0 1041278